FW6576 Weather Reports


time (UTC)temp
C
wind
direction
speed
KPH
gust
KPH
rain 1hr
cm
rain 24hr
cm
rain mn
cm
humidity
%
barometer
mb
20260507200728 15 0 3.2 9.7 0.00 0.38 4.01 71 1000.9
20260507200217 15 90 1.6 9.7 0.00 0.38 4.01 71 1000.4
20260507195707 15 338 1.6 6.4 0.00 0.38 4.01 71 999.9
20260507195157 15 45 1.6 6.4 0.00 0.38 4.01 71 999.9
20260507194657 15 338 1.6 6.4 0.00 0.38 4.01 72 999.8
20260507194137 15 45 3.2 6.4 0.00 0.38 4.01 72 1000.1
20260507193628 15 90 3.2 6.4 0.00 0.38 4.01 71 999.8
20260507192607 15 90 3.2 9.7 0.00 0.38 4.01 72 999.8
20260507192056 15 23 3.2 6.4 0.00 0.38 4.01 71 999.8
20260507191547 15 45 1.6 6.4 0.00 0.38 4.01 71 1000.3
20260507191039 15 45 1.6 3.2 0.00 0.38 4.01 72 1000.7
20260507190527 15 0 3.2 6.4 0.00 0.38 4.01 72 1001.1
20260507190017 15 23 1.6 6.4 0.00 0.38 4.01 72 1001.5
20260507184955 15 90 3.2 11.3 0.00 0.38 4.01 73 1001.3
20260507184448 15 23 3.2 11.3 0.00 0.38 4.01 73 1001.4
20260507183937 15 23 1.6 6.4 0.00 0.38 4.01 73 1001.7
20260507183427 15 90 1.6 6.4 0.00 0.38 4.01 73 1001.6
20260507182914 15 0 3.2 6.4 0.00 0.38 4.01 74 1002.1
20260507182406 15 315 3.2 9.7 0.00 0.38 4.01 73 1002.3
20260507181851 15 90 1.6 12.9 0.00 0.38 4.01 73 1002.7
20260507181340 15 68 1.6 12.9 0.00 0.38 4.01 73 1003.1
20260507180833 15 45 1.6 6.4 0.00 0.38 4.01 73 1003.2
20260507180333 15 45 3.2 6.4 0.00 0.38 4.01 74 1002.9
20260507175813 15 68 0.0 6.4 0.00 0.38 4.01 75 1003.0
20260507174245 15 68 0.0 6.4 0.00 0.38 4.01 76 1002.0
20260507173734 15 0 1.6 3.2 0.00 0.38 4.01 77 1001.6
20260507173224 15 68 1.6 3.2 0.00 0.38 4.01 78 1001.1
20260507172712 15 90 1.6 3.2 0.00 0.38 4.01 78 1000.8
20260507172202 15 68 1.6 3.2 0.00 0.38 4.01 77 1000.8
20260507171653 15 68 1.6 3.2 0.00 0.38 4.01 77 1001.3
20260507171143 15 23 0.0 6.4 0.00 0.38 4.01 77 1001.8
20260507170632 15 45 1.6 6.4 0.00 0.38 4.01 76 1001.6
20260507170124 15 68 1.6 3.2 0.00 0.38 4.01 75 1002.4
20260507165614 15 0 1.6 3.2 0.00 0.38 4.01 75 1002.5
20260507165102 15 68 1.6 6.4 0.00 0.38 4.01 75 1002.4
20260507164552 15 45 1.6 9.7 0.00 0.38 4.01 76 1003.0
20260507164041 16 68 3.2 9.7 0.00 0.38 4.01 76 1003.5
20260507163532 16 113 1.6 6.4 0.00 0.38 4.01 77 1003.2
20260507162510 16 68 0.0 6.4 0.00 0.38 4.01 77 1002.5
20260507162001 16 68 1.6 6.4 0.00 0.38 4.01 78 1001.8
20260507161451 16 338 0.0 6.4 0.00 0.38 4.01 78 1001.3
20260507160940 16 23 3.2 6.4 0.00 0.38 4.01 78 1001.3
20260507160432 16 68 1.6 6.4 0.00 0.38 4.01 78 1001.1
20260507155410 16 68 1.6 6.4 0.00 0.38 4.01 80 1001.4
20260507154900 16 90 0.0 6.4 0.00 0.38 4.01 81 1001.4
20260507154349 16 68 1.6 6.4 0.00 0.38 4.01 81 1001.9
20260507153840 16 68 1.6 6.4 0.00 0.38 4.01 82 1001.9
20260507152819 16 45 3.2 9.7 0.00 0.38 4.01 83 1001.5
20260507151759 16 45 0.0 6.4 0.00 0.38 4.01 84 1001.5
20260507150739 16 90 1.6 6.4 0.00 0.38 4.01 84 1002.2
20260507150229 16 23 1.6 6.4 0.00 0.38 4.01 84 1002.2
20260507145720 16 68 3.2 6.4 0.00 0.38 4.01 84 1002.5
20260507145209 17 45 3.2 6.4 0.00 0.38 4.01 84 1002.5
20260507144148 16 45 1.6 3.2 0.00 0.38 4.01 85 1002.4
20260507143640 16 90 1.6 3.2 0.00 0.38 4.01 85 1001.2
20260507143129 16 90 1.6 3.2 0.00 0.38 4.01 85 1001.5
20260507142618 16 113 0.0 3.2 0.00 0.38 4.01 85 1001.5
20260507142107 16 45 1.6 3.2 0.00 0.38 4.01 84 1001.1
20260507141558 16 23 3.2 6.4 0.00 0.38 4.01 84 1001.2
20260507141047 17 45 1.6 6.4 0.00 0.38 4.01 84 1001.1
20260507140544 17 68 1.6 6.4 0.00 0.38 4.01 84 1001.8
20260507140027 17 338 1.6 6.4 0.00 0.38 4.01 84 1001.9
20260507135518 17 45 0.0 3.2 0.00 0.38 4.01 84 1001.8
20260507135007 17 68 0.0 3.2 0.00 0.38 4.01 84 1001.2
20260507134458 17 23 1.6 3.2 0.00 0.38 4.01 85 1001.6
20260507133948 16 68 0.0 6.4 0.00 0.38 4.01 85 1001.8
20260507133436 17 45 1.6 6.4 0.00 0.38 4.01 85 1002.5
20260507132926 17 45 1.6 3.2 0.00 0.38 4.01 85 1002.3
20260507131906 16 0 1.6 3.2 0.00 0.38 4.01 86 1002.9
20260507131356 16 68 0.0 3.2 0.00 0.38 4.01 87 1003.2
20260507130845 16 90 0.0 3.2 0.00 0.38 4.01 87 1003.7
20260507130337 16 68 0.0 3.2 0.00 0.38 4.01 88 1004.1
20260507125315 16 45 0.0 3.2 0.00 0.38 4.01 88 1002.9
20260507124255 16 45 0.0 6.4 0.00 0.38 4.01 89 1002.2
20260507123745 16 23 3.2 11.3 0.00 0.38 4.01 89 1001.7
20260507123234 16 0 0.0 11.3 0.00 0.38 4.01 89 1001.5
20260507122726 16 23 1.6 6.4 0.00 0.38 4.01 89 1001.8
20260507122217 16 45 3.2 6.4 0.00 0.38 4.01 89 1001.5
20260507120643 16 68 1.6 9.7 0.00 0.38 4.01 90 1002.0
20260507120133 16 45 1.6 6.4 0.00 0.38 4.01 90 1001.3
20260507115623 16 45 0.0 9.7 0.00 0.38 4.01 90 1000.9
20260507115114 16 45 1.6 11.3 0.00 0.38 4.01 91 1000.2
20260507114604 16 23 3.2 11.3 0.00 0.38 4.01 91 999.4
20260507114055 16 113 1.6 6.4 0.00 0.38 4.01 91 1000.0
20260507113546 16 68 0.0 3.2 0.00 0.38 4.01 91 1001.1
20260507113035 16 68 1.6 3.2 0.00 0.38 4.01 92 1001.5
20260507112524 16 90 0.0 3.2 0.00 0.38 4.01 94 1001.5
20260507112012 16 68 1.6 3.2 0.00 0.38 4.01 94 1001.4
20260507111503 16 45 0.0 6.4 0.00 0.38 4.01 95 1001.1
20260507110951 16 68 0.0 6.4 0.00 0.38 4.01 95 1000.7
20260507110442 16 45 0.0 6.4 0.00 0.38 4.01 96 1000.2
20260507105931 16 23 1.6 6.4 0.00 0.38 4.01 96 1000.0
20260507105422 16 68 1.6 6.4 0.00 0.38 4.01 96 999.8
20260507104911 16 68 1.6 6.4 0.00 0.38 4.01 96 999.9
20260507104402 16 45 1.6 6.4 0.00 0.38 4.01 97 999.8
20260507103852 16 90 0.0 6.4 0.00 0.38 4.01 97 1000.1
20260507103342 16 23 1.6 3.2 0.00 0.38 4.01 97 1000.7
20260507102831 16 23 1.6 3.2 0.00 0.38 4.01 97 1000.6
20260507102320 16 68 0.0 3.2 0.00 0.38 4.01 97 1000.7
20260507101810 16 45 0.0 3.2 0.00 0.38 4.01 97 1001.0
20260507101302 16 135 0.0 0.0 0.00 0.38 4.01 97 1001.2
20260507100750 16 0 0.0 3.2 0.00 0.38 4.01 97 1000.8
20260507100240 16 0 0.0 3.2 0.00 0.38 4.01 97 1000.3
20260507095732 16 45 1.6 3.2 0.00 0.38 4.01 97 999.7
20260507095219 16 113 0.0 3.2 0.00 0.38 4.01 97 999.9
20260507094710 16 68 0.0 3.2 0.00 0.38 4.01 97 1000.3
20260507094159 17 68 0.0 3.2 0.00 0.38 4.01 97 1000.3
20260507093141 17 23 0.0 3.2 0.00 0.38 4.01 97 999.7
20260507092629 17 68 0.0 3.2 0.00 0.38 4.01 97 999.4
20260507092121 17 68 1.6 3.2 0.00 0.38 4.01 97 999.1
20260507091608 17 68 0.0 3.2 0.00 0.38 4.01 97 999.3
20260507091058 17 68 1.6 3.2 0.00 0.38 4.01 97 999.8
20260507090549 17 68 0.0 3.2 0.00 0.38 4.01 97 1000.7
20260507090038 17 45 0.0 3.2 0.00 0.38 4.01 97 1000.3
20260507085527 17 90 1.6 6.4 0.00 0.38 4.01 96 999.8
20260507085019 17 90 1.6 6.4 0.00 0.38 4.01 96 999.8
20260507084512 17 90 0.0 3.2 0.00 0.38 4.01 96 1000.2
20260507083957 17 45 0.0 3.2 0.00 0.38 4.01 96 1000.3
20260507082937 17 45 0.0 3.2 0.03 0.38 4.01 96 999.5
20260507080346 17 90 1.6 6.4 0.03 0.38 4.01 96 999.1
20260507074816 17 90 0.0 6.4 0.05 0.38 4.01 96 998.9
20260507074305 17 90 1.6 6.4 0.05 0.38 4.01 96 999.6
20260507073755 17 158 1.6 6.4 0.10 0.38 4.01 97 999.7
20260507073245 17 113 3.2 6.4 0.13 0.38 4.01 97 999.3
20260507072735 17 293 1.6 6.4 0.13 0.36 3.99 97 1000.2
20260507071717 17 45 3.2 11.3 0.20 0.36 3.99 97 999.8
20260507071205 17 225 3.2 11.3 0.30 0.36 3.99 97 1000.3
20260507070654 17 270 1.6 6.4 0.36 0.36 3.99 98 1000.0
20260507070144 17 293 1.6 6.4 0.36 0.36 3.99 98 1000.7
20260507065124 17 158 1.6 9.7 0.33 0.33 3.96 98 1001.0
20260507064615 17 293 1.6 9.7 0.33 0.33 3.96 98 1001.2
20260507063553 18 293 0.0 3.2 0.30 0.30 3.94 98 1002.7
20260507062533 17 113 0.0 3.2 0.20 0.20 3.84 98 1003.0
20260507062023 17 158 1.6 3.2 0.18 0.18 3.81 98 1003.0
20260507061513 17 113 0.0 3.2 0.10 0.10 3.71 98 1002.8
20260507061003 18 68 0.0 0.0 0.03 0.03 3.66 98 1003.3
20260507060450 18 158 0.0 0.0 0.00 0.00 3.63 98 1003.7
20260507060226 18 158 0.0 0.0 0.00 0.00 3.63 98 1003.7
20260507055020 18 45 0.0 3.2 0.10 4.14 3.58 98 1003.3
20260507054514 18 23 0.0 3.2 0.23 4.14 3.58 98 1002.3
20260507054000 18 68 1.6 3.2 0.36 4.11 3.53 97 1002.1
20260507053449 18 90 0.0 3.2 0.48 4.09 3.51 97 1001.9
20260507052940 18 45 0.0 3.2 0.97 4.09 3.51 97 1001.7
20260507052431 18 68 3.2 3.2 1.42 4.09 3.51 97 1001.4
20260507051919 18 113 0.0 3.2 1.88 4.04 3.48 97 1001.4
20260507050349 18 270 0.0 3.2 3.17 4.04 3.48 97 1000.9
20260507045838 18 68 0.0 6.4 3.25 4.04 3.48 97 1001.1
20260507045329 18 90 0.0 6.4 3.28 4.04 3.48 97 1001.5
20260507044818 18 113 1.6 9.7 3.33 3.99 3.45 97 1001.3
20260507044308 18 248 1.6 9.7 3.20 3.86 3.30 97 1000.6
20260507043758 18 158 3.2 9.7 3.05 3.71 3.15 96 1000.5
20260507043249 19 68 1.6 3.2 2.77 3.43 2.84 96 1001.8
20260507042737 19 23 1.6 6.4 2.21 2.87 2.31 96 1003.1
20260507042227 19 0 3.2 6.4 1.70 2.36 1.80 95 1002.4
20260507041719 19 180 3.2 6.4 1.50 2.16 1.60 95 1000.8
20260507040659 20 113 3.2 11.3 0.69 1.27 0.69 92 1001.3
20260507040149 21 113 3.2 9.7 0.23 0.81 0.23 90 1001.0
20260507035127 22 180 3.2 6.4 0.20 0.79 0.20 92 999.3
20260507034618 22 135 0.0 3.2 0.10 0.66 0.10 92 999.8
20260507034107 22 293 0.0 3.2 0.10 0.66 0.10 92 999.1
20260507033556 22 293 0.0 3.2 0.10 0.66 0.10 91 999.1
20260507033047 22 315 0.0 3.2 0.10 0.66 0.10 91 999.4
20260507032537 22 338 0.0 3.2 0.10 0.66 0.10 91 998.9
20260507031007 23 293 0.0 3.2 0.03 0.61 0.03 87 999.8
20260507030457 23 293 0.0 3.2 0.00 0.56 0.00 86 1000.0
20260507025947 23 338 0.0 3.2 0.00 0.56 0.56 86 999.7
20260507025434 23 293 0.0 3.2 0.00 0.56 0.56 86 999.9
20260507024924 23 293 0.0 3.2 0.00 0.56 0.56 86 1000.1
20260507024415 23 315 0.0 6.4 0.00 0.56 0.56 86 1000.2
20260507023905 23 23 1.6 6.4 0.00 0.56 0.56 86 1000.1
20260507023357 23 23 0.0 6.4 0.00 0.56 0.56 86 999.9
20260507022846 23 338 1.6 6.4 0.00 0.56 0.56 86 1000.0
20260507021824 23 293 0.0 6.4 0.00 0.56 0.56 85 1000.4
20260507021316 23 270 0.0 6.4 0.00 0.56 0.56 85 1000.3
20260507020804 23 68 1.6 3.2 0.00 0.56 0.56 85 1000.4
20260507015744 24 180 0.0 6.4 0.00 0.56 0.56 84 1000.7
20260507015233 24 248 0.0 11.3 0.00 0.56 0.56 84 1000.9
20260507013702 24 315 1.6 6.4 0.00 0.56 0.56 84 1000.6
20260507013152 24 90 1.6 6.4 0.00 0.56 0.56 83 1000.9
20260507012643 24 293 3.2 6.4 0.00 0.56 0.56 83 1001.2
20260507011624 24 0 3.2 11.3 0.00 0.56 0.56 84 1001.0
20260507011117 24 23 0.0 6.4 0.00 0.56 0.56 84 1000.9
20260507010603 24 23 0.0 6.4 0.00 0.56 0.56 84 1001.0
20260507010051 24 135 1.6 6.4 0.00 0.56 0.56 84 1001.2
20260507005031 23 270 3.2 6.4 0.00 0.56 0.56 85 1001.1
20260507004529 23 113 0.0 6.4 0.00 0.56 0.56 86 1001.1
20260507004012 23 68 1.6 9.7 0.00 0.56 0.56 86 1001.3
20260507003501 23 270 1.6 9.7 0.00 0.56 0.56 86 1001.1
20260507002953 23 248 1.6 12.9 0.00 0.56 0.56 86 1001.3
20260507002443 23 293 1.6 12.9 0.00 0.56 0.56 86 1001.4
20260507001931 23 23 0.0 6.4 0.00 0.56 0.56 87 1000.9
20260507000911 23 90 1.6 6.4 0.00 0.56 0.56 88 1001.0
20260507000401 23 68 0.0 3.2 0.00 0.56 0.56 88 1001.4
20260506235850 23 90 1.6 6.4 0.00 0.56 0.56 88 1001.3
20260506235344 23 135 1.6 6.4 0.00 0.56 0.56 87 1001.4
20260506234319 23 293 1.6 9.7 0.00 0.56 0.56 87 1001.1
20260506233810 23 0 0.0 6.4 0.00 0.56 0.56 88 1000.7
20260506232749 22 135 1.6 6.4 0.00 0.56 0.56 88 1000.2
20260506231730 22 90 0.0 9.7 0.00 0.56 0.56 88 1000.6
20260506231218 22 45 3.2 9.7 0.00 0.56 0.56 88 1000.7
20260506230158 22 0 0.0 6.4 0.00 0.56 0.56 88 1000.8
20260506225648 22 158 1.6 6.4 0.00 0.56 0.56 88 1001.4
20260506225138 22 338 0.0 3.2 0.00 0.56 0.56 88 1001.5
20260506224627 22 338 1.6 3.2 0.00 0.56 0.56 87 1001.6
20260506224118 22 0 0.0 6.4 0.00 0.56 0.56 87 1001.6
20260506223607 22 338 1.6 6.4 0.00 0.56 0.56 87 1001.8
20260506223058 22 0 0.0 6.4 0.00 0.56 0.56 87 1001.7
20260506222548 22 293 0.0 6.4 0.00 0.56 0.56 87 1001.9
20260506222039 22 338 0.0 6.4 0.00 0.56 0.56 87 1001.9
20260506221526 22 338 1.6 6.4 0.00 0.56 0.56 87 1002.2
20260506221022 22 0 1.6 6.4 0.00 0.56 0.56 87 1002.2
20260506215956 21 0 3.2 6.4 0.00 0.56 0.56 88 1002.6
20260506215446 21 23 0.0 3.2 0.00 0.56 0.56 88 1002.7
20260506214940 21 338 0.0 3.2 0.00 0.56 0.56 88 1003.1
20260506214425 21 45 0.0 3.2 0.00 0.56 0.56 88 1003.0
20260506213915 21 135 0.0 3.2 0.00 0.56 0.56 88 1002.9
20260506213405 21 0 0.0 3.2 0.00 0.56 0.56 88 1003.0
20260506212855 21 0 0.0 3.2 0.00 0.56 0.56 88 1003.3
20260506212347 21 338 0.0 3.2 0.00 0.56 0.56 88 1003.2
20260506211837 21 315 0.0 3.2 0.00 0.56 0.56 88 1003.3
20260506211325 22 293 0.0 3.2 0.00 0.56 0.56 87 1003.1
20260506210817 22 270 0.0 3.2 0.00 0.56 0.56 87 1003.1
20260506210303 22 293 0.0 3.2 0.00 0.56 0.56 87 1003.1
20260506205754 22 270 1.6 3.2 0.00 0.56 0.56 87 1003.3
20260506205244 22 203 0.0 6.4 0.00 0.56 0.56 86 1003.3
20260506204736 22 248 0.0 6.4 0.00 0.56 0.56 86 1003.3
20260506204230 22 270 0.0 6.4 0.00 0.56 0.56 86 1003.1
20260506203713 22 270 1.6 6.4 0.00 0.56 0.56 86 1003.3
20260506203205 22 158 0.0 3.2 0.00 0.56 0.56 86 1003.1
20260506202653 22 248 1.6 3.2 0.00 0.56 0.56 85 1003.4
20260506202153 22 135 1.6 3.2 0.00 0.56 0.56 85 1003.6
20260506201634 22 158 0.0 3.2 0.00 0.56 0.56 85 1003.6